Weather History for KFWS - December, 2012

Change the Weather History Date:

Saturday, December 1, 2012

  Actual Average (KDFW) Record (KDFW)
Temperature  
Mean Temperature 72 °F 50 °F  
Max Temperature 82 °F 61 °F 83 °F (1950)
Min Temperature 62 °F 40 °F 24 °F (1985)
Degree Days  
Heating Degree Days 0 15  
Month to date heating degree days 15  
Since 1 July heating degree days 369  
Cooling Degree Days 7 0  
Month to date cooling degree days 0  
Year to date cooling degree days 2752  
Growing Degree Days 22 (Base 50)    
Moisture  
Dew Point 60 °F    
Average Humidity 73    
Maximum Humidity 94    
Minimum Humidity 42    
Precipitation  
Precipitation 0.00 in 0.08 in 2.24 in (1914)
Month to date precipitation 0.08  
Year to date precipitation 33.67  
Snow  
Snow 0.00 in 0.00 in 0.00 in (00)
Month to date snowfall 0.0  
Since 1 July snowfall T  
Snow Depth -    
Sea Level Pressure  
Sea Level Pressure 30.02 in    
Wind  
Wind Speed 11 mph (South)    
Max Wind Speed 20 mph    
Max Gust Speed 31 mph    
Visibility 9 miles    
Events      
T = Trace of Precipitation, MM = Missing Value Source: NWS Daily Summary

Daily Weather History Graph

Daily Weather History Graph

Search for Another Location

Airport or City:

Trip Planner

Search our weather history database for the weather conditions in past years. The results will help you decide how hot, cold, wet, or windy it might be!

Date:

Astronomy

Dec. 01, 2012 Rise Set
Actual Time 7:13 AM CST 5:23 PM CST
Civil Twilight 6:46 AM CST 5:50 PM CST
Nautical Twilight 6:16 AM CST 6:20 PM CST
Astronomical Twilight 5:46 AM CST 6:50 PM CST
Moon 8:11 PM CST (12/1) 9:29 AM CST (12/1)
Length of Visible Light 11h 03m
Length of Day
10h 09m
Waning Gibbous, 91% of the Moon is Illuminated
Dec 1
Waning Gibbous
Dec 6
Last Quarter
Dec 13
New
Dec 19
First Quarter
Dec 28
Full

Hourly Weather History & Observations

Time (CST) Temp. Heat Index Dew Point Humidity Pressure Visibility Wind Dir Wind Speed Gust Speed Precip Events Conditions
12:15 AM 64.4 °F - 59.0 °F 83% 30.06 in 10.0 mi South 11.5 mph - N/A   Clear
12:35 AM 62.6 °F - 59.0 °F 88% 30.06 in 10.0 mi South 10.4 mph - N/A   Clear
12:55 AM 62.6 °F - 59.0 °F 88% 30.06 in 7.0 mi South 10.4 mph - N/A   Clear
1:15 AM 62.6 °F - 59.0 °F 88% 30.06 in 7.0 mi South 10.4 mph - N/A   Clear
1:35 AM 62.6 °F - 60.8 °F 94% 30.06 in 7.0 mi South 10.4 mph - N/A   Clear
1:55 AM 62.6 °F - 60.8 °F 94% 30.06 in 7.0 mi South 10.4 mph - N/A   Clear
2:15 AM 62.6 °F - 60.8 °F 94% 30.06 in 7.0 mi South 10.4 mph - N/A   Clear
2:55 AM 62.6 °F - 59.0 °F 88% 30.06 in 7.0 mi South 9.2 mph - N/A   Clear
3:15 AM 62.6 °F - 59.0 °F 88% 30.06 in 7.0 mi South 8.1 mph - N/A   Clear
3:35 AM 62.6 °F - 60.8 °F 94% 30.05 in 10.0 mi South 10.4 mph - N/A   Clear
4:15 AM 64.4 °F - 60.8 °F 88% 30.05 in 7.0 mi South 16.1 mph 24.2 mph N/A   Overcast
4:35 AM 62.6 °F - 60.8 °F 94% 30.05 in 5.0 mi South 13.8 mph 23.0 mph N/A   Overcast
4:55 AM 62.6 °F - 60.8 °F 94% 30.05 in 7.0 mi South 15.0 mph 20.7 mph N/A   Mostly Cloudy
5:15 AM 62.6 °F - 60.8 °F 94% 30.05 in 7.0 mi South 8.1 mph - N/A   Scattered Clouds
6:47 AM 66.2 °F - 62.6 °F 88% 30.05 in 7.0 mi South 11.5 mph - N/A   Mostly Cloudy
7:49 AM 66.2 °F - 62.6 °F 88% 30.06 in 10.0 mi South 11.5 mph 18.4 mph N/A   Mostly Cloudy
8:48 AM 68.0 °F - 64.4 °F 88% 30.07 in 10.0 mi South 13.8 mph 23.0 mph N/A   Mostly Cloudy
9:50 AM 71.6 °F - 64.4 °F 78% 30.08 in 10.0 mi South 15.0 mph 20.7 mph N/A   Mostly Cloudy
10:49 AM 73.4 °F - 62.6 °F 69% 30.07 in 10.0 mi South 15.0 mph 26.5 mph N/A   Mostly Cloudy
1:52 PM 82.4 °F 82.9 °F 60.8 °F 48% 29.97 in 10.0 mi South 19.6 mph 26.5 mph N/A   Scattered Clouds
2:53 PM 82.4 °F 82.5 °F 59.0 °F 45% 29.96 in 10.0 mi South 15.0 mph 31.1 mph N/A   Scattered Clouds
3:50 PM 82.4 °F 82.0 °F 57.2 °F 42% 29.95 in 10.0 mi South 13.8 mph 24.2 mph N/A   Clear
4:52 PM 80.6 °F 80.8 °F 57.2 °F 45% 29.96 in 10.0 mi South 12.7 mph 21.9 mph N/A   Clear
5:47 PM 78.8 °F - 57.2 °F 47% 29.96 in 10.0 mi South 10.4 mph 18.4 mph N/A   Clear
6:49 PM 75.2 °F - 57.2 °F 53% 29.97 in 10.0 mi SSE 12.7 mph - N/A   Clear
6:55 PM 75.2 °F - 57.2 °F 53% 29.97 in 10.0 mi South 10.4 mph 17.3 mph N/A   Clear
7:15 PM 73.4 °F - 57.2 °F 57% 29.97 in 10.0 mi South 10.4 mph - N/A   Clear
7:35 PM 73.4 °F - 59.0 °F 61% 29.98 in 10.0 mi South 10.4 mph 17.3 mph N/A   Clear
7:55 PM 73.4 °F - 57.2 °F 57% 29.98 in 10.0 mi South 12.7 mph 17.3 mph N/A   Clear
8:15 PM 73.4 °F - 59.0 °F 61% 29.98 in 10.0 mi South 12.7 mph 19.6 mph N/A   Clear
8:35 PM 73.4 °F - 59.0 °F 61% 29.99 in 10.0 mi South 17.3 mph 20.7 mph N/A   Clear
8:55 PM 73.4 °F - 59.0 °F 61% 29.99 in 10.0 mi SSW 11.5 mph - N/A   Clear
9:15 PM 71.6 °F - 59.0 °F 64% 30.01 in 10.0 mi SSW 8.1 mph - N/A   Clear
9:35 PM 71.6 °F - 59.0 °F 64% 30.01 in 10.0 mi SSW 11.5 mph - N/A   Clear
9:55 PM 69.8 °F - 59.0 °F 68% 30.01 in 10.0 mi South 10.4 mph - N/A   Clear
10:15 PM 69.8 °F - 59.0 °F 68% 30.02 in 10.0 mi South 13.8 mph 18.4 mph N/A   Clear
10:35 PM 69.8 °F - 59.0 °F 68% 30.02 in 10.0 mi South 8.1 mph - N/A   Clear
10:55 PM 69.8 °F - 59.0 °F 68% 30.04 in 10.0 mi SSW 8.1 mph - N/A   Clear
11:15 PM 68.0 °F - 59.0 °F 73% 30.04 in 10.0 mi South 8.1 mph - N/A   Clear
11:35 PM 68.0 °F - 59.0 °F 73% 30.05 in 10.0 mi South 6.9 mph - N/A   Clear
11:55 PM 68.0 °F - 59.0 °F 73% 30.05 in 10.0 mi South 10.4 mph - N/A   Clear